DW9923 Weather Reports


Display with metric or nautical units.
time (UTC)temp
F
wind
direction
speed
MPH
gust
MPH
rain 1hr
in
rain 24hr
in
rain mn
in
humidity
%
barometer
mb
20260510215719 80 235 4.0 8.0 0.00 0.01 0.01 54
20260510215224 80 299 4.0 8.0 0.00 0.01 0.01 54
20260510214733 80 300 4.0 8.0 0.00 0.01 0.01 54
20260510214235 80 309 3.0 7.0 0.00 0.01 0.01 55
20260510213724 80 297 3.0 7.0 0.00 0.01 0.01 54
20260510213219 80 298 3.0 7.0 0.00 0.01 0.01 55
20260510212726 80 329 3.0 7.0 0.00 0.01 0.01 56
20260510212221 80 309 3.0 7.0 0.00 0.01 0.01 57
20260510211708 80 309 3.0 7.0 0.00 0.01 0.01 57
20260510211215 79 318 3.0 8.0 0.00 0.01 0.01 60
20260510210724 79 307 4.0 8.0 0.00 0.01 0.01 59
20260510205610 78 275 3.0 8.0 0.00 0.01 0.01 59
20260510205116 78 301 3.0 8.0 0.00 0.01 0.01 59
20260510204612 78 313 3.0 8.0 0.00 0.01 0.01 60
20260510204102 77 281 3.0 8.0 0.00 0.01 0.01 60
20260510203549 77 298 3.0 7.0 0.00 0.01 0.01 62
20260510203055 77 281 3.0 7.0 0.00 0.01 0.01 62
20260510202556 77 282 3.0 8.0 0.00 0.01 0.01 61
20260510201436 77 298 3.0 8.0 0.00 0.01 0.01 62
20260510200311 76 284 4.0 9.0 0.00 0.01 0.01 62
20260510195138 76 317 4.0 9.0 0.00 0.01 0.01 62
20260510194641 76 293 4.0 8.0 0.00 0.01 0.01 62
20260510193529 76 298 4.0 8.0 0.00 0.01 0.01 63
20260510193032 77 293 3.0 8.0 0.00 0.01 0.01 62
20260510191858 77 264 4.0 7.0 0.00 0.01 0.01 62
20260510191401 76 298 3.0 7.0 0.00 0.01 0.01 63
20260510190900 76 290 3.0 6.0 0.00 0.01 0.01 63
20260510190355 76 300 3.0 6.0 0.00 0.01 0.01 63
20260510185848 76 303 3.0 7.0 0.00 0.01 0.01 63
20260510185329 76 290 3.0 7.0 0.00 0.01 0.01 64
20260510184837 75 284 4.0 7.0 0.00 0.01 0.01 64
20260510184325 75 300 4.0 7.0 0.00 0.01 0.01 64
20260510183826 75 285 3.0 7.0 0.00 0.01 0.01 62
20260510183327 76 295 2.0 7.0 0.00 0.01 0.01 63
20260510182211 76 277 3.0 6.0 0.00 0.01 0.01 64
20260510181715 75 299 2.0 6.0 0.00 0.01 0.01 65
20260510181201 74 294 2.0 6.0 0.00 0.01 0.01 65
20260510180649 74 296 3.0 6.0 0.00 0.01 0.01 67
20260510175459 73 312 3.0 6.0 0.00 0.01 0.01 68
20260510174958 73 309 2.0 6.0 0.00 0.01 0.01 68
20260510174500 73 308 2.0 6.0 0.00 0.01 0.01 69
20260510173956 73 292 1.0 5.0 0.00 0.01 0.01 70
20260510173503 72 258 1.0 5.0 0.00 0.01 0.01 71
20260510173006 72 300 1.0 5.0 0.00 0.01 0.01 72
20260510172511 71 294 0.0 5.0 0.00 0.01 0.01 72
20260510172012 71 5 0.0 3.0 0.00 0.01 0.01 73
20260510171454 70 313 0.0 1.0 0.00 0.01 0.01 75
20260510170941 70 323 0.0 4.0 0.00 0.01 0.01 75
20260510170442 69 211 0.0 2.0 0.00 0.01 0.01 76
20260510165942 68 204 0.0 0.0 0.00 0.01 0.01 77
20260510164233 66 144 0.0 0.0 0.00 0.01 0.01 80
20260510163740 66 144 0.0 2.0 0.00 0.01 0.01 82
20260510163247 65 144 0.0 2.0 0.00 0.01 0.01 84
20260510162748 64 141 0.0 2.0 0.00 0.01 0.01 85
20260510162236 63 141 0.0 1.0 0.00 0.01 0.01 88
20260510161723 63 141 0.0 1.0 0.00 0.01 0.01 89
20260510161212 62 141 0.0 0.0 0.00 0.01 0.01 91
20260510160711 61 140 0.0 0.0 0.00 0.01 0.01 92
20260510160152 61 140 0.0 1.0 0.00 0.01 0.01 93
20260510155048 59 143 0.0 3.0 0.00 0.01 0.01 94
20260510153926 58 142 0.0 0.0 0.00 0.01 0.01 94
20260510153412 58 133 0.0 0.0 0.00 0.01 0.01 95
20260510152913 57 133 0.0 0.0 0.00 0.01 0.01 94
20260510152416 57 133 0.0 0.0 0.00 0.01 0.01 94
20260510151918 57 133 0.0 0.0 0.00 0.01 0.01 95
20260510150126 56 133 0.0 0.0 0.00 0.01 0.01 95
20260510145613 56 133 0.0 0.0 0.00 0.01 0.01 94
20260510144444 56 133 0.0 0.0 0.00 0.01 0.01 94
20260510142041 56 133 0.0 0.0 0.00 0.01 0.01 94
20260510141535 55 133 0.0 0.0 0.00 0.01 0.01 94
20260510141018 55 133 0.0 0.0 0.00 0.01 0.01 94
20260510140513 55 133 0.0 0.0 0.00 0.01 0.01 94
20260510140003 55 290 0.0 0.0 0.00 0.01 0.01 94
20260510135504 55 290 0.0 0.0 0.00 0.01 0.01 94
20260510135009 55 290 0.0 0.0 0.00 0.01 0.01 94
20260510133845 55 290 0.0 0.0 0.00 0.01 0.01 94
20260510133341 54 290 0.0 0.0 0.00 0.01 0.01 94
20260510132834 54 290 0.0 0.0 0.00 0.01 0.01 94
20260510132317 54 290 0.0 0.0 0.00 0.01 0.01 94
20260510131825 54 290 0.0 0.0 0.00 0.00 0.00 94
20260510131328 54 290 0.0 0.0 0.00 0.00 0.00 94
20260510130814 54 290 0.0 0.0 0.00 0.00 0.00 94
20260510130313 54 290 0.0 0.0 0.00 0.00 0.00 94
20260510125801 54 290 0.0 0.0 0.00 0.00 0.00 94
20260510125252 54 290 0.0 0.0 0.00 0.00 0.00 93
20260510124758 54 290 0.0 0.0 0.00 0.00 0.00 93
20260510124250 54 290 0.0 0.0 0.00 0.00 0.00 93
20260510123737 54 290 0.0 0.0 0.00 0.00 0.00 93
20260510123231 54 290 0.0 0.0 0.00 0.01 0.00 93
20260510122109 54 290 0.0 0.0 0.00 0.01 0.00 93
20260510121615 54 290 0.0 0.0 0.00 0.01 0.00 93
20260510121123 54 290 0.0 0.0 0.00 0.01 0.00 93
20260510120622 54 290 0.0 0.0 0.00 0.01 0.00 93
20260510120132 54 290 0.0 0.0 0.00 0.01 0.00 93
20260510115008 53 290 0.0 0.0 0.00 0.01 0.00 93
20260510114459 53 290 0.0 0.0 0.00 0.01 0.00 93
20260510113942 53 290 0.0 0.0 0.00 0.01 0.00 93
20260510113448 53 290 0.0 0.0 0.00 0.01 0.00 93
20260510112948 53 290 0.0 0.0 0.00 0.01 0.00 93
20260510112450 53 290 0.0 0.0 0.00 0.01 0.00 93
20260510111950 53 290 0.0 0.0 0.00 0.01 0.00 93
20260510111434 53 290 0.0 0.0 0.00 0.01 0.00 93
20260510110923 53 290 0.0 0.0 0.00 0.01 0.00 93
20260510110419 53 290 0.0 0.0 0.00 0.01 0.00 93
20260510105919 52 290 0.0 0.0 0.00 0.01 0.00 93
20260510105404 52 290 0.0 0.0 0.00 0.01 0.00 93
20260510104851 52 290 0.0 0.0 0.00 0.01 0.00 92
20260510104342 52 290 0.0 0.0 0.00 0.01 0.00 92
20260510103835 52 290 0.0 0.0 0.00 0.01 0.00 92
20260510103335 51 290 0.0 0.0 0.00 0.01 0.00 92
20260510102226 51 290 0.0 0.0 0.00 0.01 0.00 92
20260510101718 51 290 0.0 0.0 0.00 0.01 0.00 91
20260510101224 51 290 0.0 0.0 0.00 0.01 0.00 91
20260510100711 51 290 0.0 0.0 0.00 0.01 0.00 91
20260510100154 50 290 0.0 0.0 0.00 0.01 0.00 90
20260510095518 50 290 0.0 0.0 0.00 0.01 0.00 90
20260510095003 50 290 0.0 0.0 0.00 0.01 0.00 90
20260510093833 50 290 0.0 0.0 0.00 0.01 0.00 89
20260510093330 50 290 0.0 0.0 0.00 0.01 0.00 89
20260510092836 51 290 0.0 0.0 0.00 0.01 0.00 89
20260510092326 51 290 0.0 0.0 0.00 0.01 0.00 89
20260510091812 51 290 0.0 0.0 0.00 0.01 0.00 89
20260510090644 51 290 0.0 0.0 0.00 0.01 0.00 88
20260510085528 51 290 0.0 0.0 0.00 0.01 0.00 88
20260510085010 51 290 0.0 0.0 0.00 0.01 0.00 88
20260510084501 51 290 0.0 0.0 0.00 0.01 0.00 88
20260510084008 52 290 0.0 0.0 0.00 0.01 0.00 88
20260510083503 52 290 0.0 0.0 0.00 0.01 0.00 88
20260510083008 52 290 0.0 0.0 0.00 0.01 0.00 87
20260510082506 52 290 0.0 0.0 0.00 0.01 0.00 87
20260510081946 52 290 0.0 0.0 0.00 0.01 0.00 87
20260510081430 52 290 0.0 0.0 0.00 0.01 0.00 88
20260510080918 52 290 0.0 0.0 0.00 0.01 0.00 88
20260510080423 52 290 0.0 0.0 0.00 0.01 0.00 87
20260510075926 52 290 0.0 0.0 0.00 0.01 0.00 87
20260510074801 53 290 0.0 0.0 0.00 0.01 0.00 87
20260510074258 53 290 0.0 0.0 0.00 0.01 0.00 87
20260510073804 53 290 0.0 0.0 0.00 0.01 0.00 86
20260510073309 53 290 0.0 0.0 0.00 0.01 0.00 86
20260510072808 53 290 0.0 0.0 0.00 0.01 0.00 86
20260510072313 53 290 0.0 0.0 0.00 0.01 0.00 86
20260510071756 53 290 0.0 0.0 0.00 0.01 0.00 86
20260510071252 53 290 0.0 0.0 0.00 0.01 0.00 86
20260510070751 54 290 0.0 0.0 0.00 0.01 0.00 86
20260510070257 54 290 0.0 0.0 0.00 0.01 0.00 86
20260510065807 54 290 0.0 0.0 0.00 0.01 0.01 86
20260510065301 54 290 0.0 0.0 0.00 0.01 0.01 86
20260510064758 54 290 0.0 0.0 0.00 0.01 0.01 85
20260510064304 54 290 0.0 0.0 0.00 0.01 0.01 85
20260510063755 54 290 0.0 0.0 0.00 0.01 0.01 85
20260510063240 54 290 0.0 0.0 0.00 0.01 0.01 85
20260510062727 55 290 0.0 0.0 0.00 0.01 0.01 84
20260510062227 55 290 0.0 0.0 0.00 0.01 0.01 84
20260510061726 55 290 0.0 0.0 0.00 0.01 0.01 84
20260510061232 55 290 0.0 0.0 0.00 0.01 0.01 84
20260510060735 55 290 0.0 0.0 0.00 0.01 0.01 84
20260510055621 56 290 0.0 0.0 0.00 0.01 0.01 83
20260510055117 56 290 0.0 0.0 0.00 0.01 0.01 83
20260510053934 56 290 0.0 0.0 0.00 0.01 0.01 83
20260510053439 57 290 0.0 0.0 0.00 0.01 0.01 83
20260510052940 57 290 0.0 0.0 0.00 0.01 0.01 83
20260510051821 57 290 0.0 0.0 0.00 0.01 0.01 82
20260510051315 58 290 0.0 0.0 0.00 0.01 0.01 82
20260510050823 58 290 0.0 0.0 0.00 0.01 0.01 82
20260510050309 58 290 0.0 0.0 0.00 0.01 0.01 82
20260510045809 58 290 0.0 0.0 0.00 0.01 0.01 81
20260510045319 59 290 0.0 0.0 0.00 0.01 0.01 81
20260510044805 59 290 0.0 0.0 0.00 0.01 0.01 81
20260510044249 59 290 0.0 0.0 0.00 0.01 0.01 81
20260510043126 60 290 0.0 0.0 0.00 0.01 0.01 80
20260510042003 61 290 0.0 0.0 0.00 0.01 0.01 80
20260510041501 61 290 0.0 0.0 0.00 0.01 0.01 80
20260510041002 61 290 0.0 0.0 0.00 0.01 0.01 79
20260510040506 61 290 0.0 0.0 0.00 0.01 0.01 78
20260510035947 62 290 0.0 0.0 0.00 0.01 0.01 77
20260510035449 62 290 0.0 0.0 0.00 0.01 0.01 77
20260510034329 63 290 0.0 0.0 0.00 0.01 0.01 76
20260510033834 63 290 0.0 0.0 0.00 0.01 0.01 76
20260510033325 64 290 0.0 0.0 0.00 0.01 0.01 76
20260510032823 64 290 0.0 0.0 0.00 0.01 0.01 75
20260510032311 64 290 0.0 0.0 0.00 0.01 0.01 75
20260510031810 65 290 0.0 0.0 0.00 0.01 0.01 75
20260510030702 66 290 0.0 0.0 0.00 0.01 0.01 73
20260510030156 66 290 0.0 0.0 0.00 0.01 0.01 73
20260510025643 67 290 0.0 0.0 0.00 0.01 0.01 72
20260510025124 67 290 0.0 0.0 0.00 0.01 0.01 71
20260510024629 67 290 0.0 0.0 0.00 0.01 0.01 71
20260510024139 68 290 0.0 0.0 0.00 0.01 0.01 70
20260510023620 68 290 0.0 0.0 0.00 0.01 0.01 70
20260510023103 69 290 0.0 0.0 0.00 0.01 0.01 69
20260510021936 70 290 0.0 0.0 0.00 0.01 0.01 67
20260510021426 70 290 0.0 0.0 0.00 0.01 0.01 66
20260510020921 71 290 0.0 1.0 0.00 0.01 0.01 66
20260510020408 72 290 0.0 1.0 0.00 0.01 0.01 65
20260510015908 72 290 0.0 0.0 0.00 0.01 0.01 64
20260510015410 73 290 0.0 0.0 0.00 0.01 0.01 64
20260510014904 73 290 0.0 0.0 0.00 0.01 0.01 63
20260510014403 73 290 0.0 1.0 0.00 0.01 0.01 63
20260510013237 74 290 1.0 6.0 0.00 0.01 0.01 62
20260510012103 74 300 1.0 4.0 0.00 0.01 0.01 61
20260510011613 74 300 2.0 6.0 0.00 0.01 0.01 61
20260510011102 74 300 3.0 6.0 0.00 0.01 0.01 61
20260510010551 75 299 3.0 9.0 0.00 0.01 0.01 61
20260510010045 75 302 3.0 9.0 0.00 0.01 0.01 61
20260510005537 75 297 3.0 9.0 0.00 0.01 0.01 60
20260510004350 76 273 3.0 8.0 0.00 0.01 0.01 60
20260510002542 76 298 4.0 8.0 0.00 0.01 0.01 60
20260510002025 76 295 4.0 8.0 0.00 0.01 0.01 61
20260510000857 76 292 4.0 9.0 0.00 0.01 0.01 60
20260510000356 75 273 5.0 10.0 0.00 0.01 0.01 60
20260509235855 76 281 4.0 10.0 0.00 0.01 0.01 60
20260509235335 76 301 4.0 10.0 0.00 0.01 0.01 61
20260509234823 76 266 5.0 10.0 0.00 0.01 0.01 60
20260509234319 76 306 5.0 10.0 0.00 0.01 0.01 60
20260509233828 76 254 5.0 12.0 0.00 0.01 0.01 60
20260509233331 76 295 5.0 12.0 0.00 0.01 0.01 59
20260509232839 77 292 5.0 12.0 0.00 0.01 0.01 59
20260509231712 77 296 5.0 12.0 0.00 0.01 0.01 58
20260509231220 77 294 5.0 12.0 0.00 0.01 0.01 58
20260509230716 77 294 5.0 9.0 0.00 0.01 0.01 58
20260509230200 77 299 5.0 10.0 0.00 0.01 0.01 58
20260509225709 77 310 5.0 10.0 0.00 0.01 0.01 58
20260509225156 77 322 5.0 10.0 0.00 0.01 0.01 58
20260509224027 77 275 4.0 10.0 0.00 0.01 0.01 58
20260509223522 77 305 4.0 10.0 0.00 0.01 0.01 60
20260509223022 77 305 5.0 8.0 0.00 0.01 0.01 58
20260509222507 77 310 5.0 9.0 0.00 0.01 0.01 59
20260509221956 77 306 5.0 9.0 0.00 0.01 0.01 59
20260509221501 77 304 5.0 9.0 0.00 0.01 0.01 58
20260509221007 78 311 5.0 9.0 0.00 0.01 0.01 59
20260509220513 78 286 5.0 9.0 0.00 0.01 0.01 58
20260509220022 78 298 5.0 9.0 0.00 0.01 0.01 59